Weather Roundup
Issued by NWS Springfield, MO

Home | Current Version | Previous Version | Text Only | Print | Product List | Glossary On
Versions: 1 2 3 4 5 6 7 8 9 10 11 12 13 14 15 16 17 18 19 20 21 22 23 24 25 26 27 28 29 30 31 32 33 34 35 36 37 38 39 40 41 42 43 44 45 46 47 48 49 50
000
NZUS99 KSGF 301507
HRRSGF

HOURLY WEATHER
NATIONAL WEATHER SERVICE SPRINGFIELD MO
1000 AM CDT SAT APR 30 2016

......SGF CWA......

CITY           SKY/WX    TMP DP  RH WIND       PRES   REMARKS
SPRINGFIELD    CLOUDY    66  60  81 SW12      29.71S
JOPLIN         CLOUDY    63  59  87 SW13      29.73R
WEST PLAINS    CLOUDY    64  59  83 S8        29.76F
ROLLA          CLOUDY    62  60  93 S12       29.72R
OSAGE BEACH    CLOUDY    63  54  72 SE5       29.71S
BRANSON        CLOUDY    66  61  82 CALM      29.74F

......SURROUNDING SGF CWA......

CITY           SKY/WX    TMP DP  RH WIND       PRES   REMARKS
CHANUTE        CLOUDY    59  54  83 W14       29.72R
PARSONS        CLOUDY    60  55  83 W15       29.73R
COFFEYVILLE    CLOUDY    62  54  74 W10       29.74R
EMPORIA        CLOUDY    54  50  86 W9        29.71R
GROVE OK       CLOUDY    63  61  94 W9        29.75S
ROGERS AR      CLOUDY    64  62  93 SW9       29.75F
SILOAM SPRINGS CLOUDY    64  55  72 SW10      29.75S
HARRISON AR    CLOUDY    65  61  87 SW10      29.74F
NEAR YELLVILLE CLOUDY   N/A N/A N/A S5        29.72S

......KANSAS AND MISSOURI......

CITY           SKY/WX    TMP DP  RH WIND       PRES   REMARKS
KANSAS CTY INT CLOUDY    59  58  96 SE12      29.64S
DOWNTOWN KC    CLOUDY    63  60  90 CALM      29.63F
COLUMBIA       LGT RAIN  60  59  96 SE8       29.71R FOG
SEDALIA        CLOUDY    64  61  90 S10       29.70R
ST JOSEPH      CLOUDY    55  53  93 E15       29.64S
ST LOUIS       LGT RAIN  62  59  90 SE9       29.77F FOG
SPIRIT OF STL  LGT RAIN  61  60  97 VRB3      29.76F FOG
KIRKSVILLE     LGT RAIN  51  49  92 E12       29.72F
WICHITA        PTSUNNY   51  44  77 W15       29.76R
TOPEKA         CLOUDY    58  54  86 W10       29.66R
OLATHE         CLOUDY    63  60  90 S12       29.64F

......TENNESSEE......

CITY           SKY/WX    TMP DP  RH WIND       PRES   REMARKS
MEMPHIS        LGT RAIN  66  62  87 S10       29.88R
NASHVILLE      CLOUDY    65  62  90 E8        29.93F

......ARKANSAS.......

CITY           SKY/WX    TMP DP  RH WIND       PRES   REMARKS
FAYETTEVILLE   CLOUDY    66  63  90 S15       29.75R
FT SMITH       CLOUDY    69  62  78 CALM      29.75R
LITTLE ROCK    CLOUDY    68  63  84 CALM      29.77R

......OKLAHOMA.......

CITY           SKY/WX    TMP DP  RH WIND       PRES   REMARKS
TULSA          PTSUNNY   59  52  77 W12       29.76R
PONCA CITY     CLOUDY    51  46  83 W8G22     29.77S
MCALESTER      CLOUDY    59  57  93 NW9       29.78F FOG
OKLAHOMA CITY  MOSUNNY   56  47  71 NW12      29.81R

......IOWA............

CITY           SKY/WX    TMP DP  RH WIND       PRES   REMARKS
DES MOINES     LGT RAIN  47  43  86 E14G23    29.76F FOG
QUAD CITIES    LGT RAIN  49  45  86 E21       29.87F FOG

......ILLINOIS........

CITY           SKY/WX    TMP DP  RH WIND       PRES   REMARKS
QUINCY         LGT RAIN  55  53  93 E21G28    29.73F FOG
CHICAGO        CLOUDY    48  39  71 E13       30.04S




USA.gov is the U.S. government's official web portal to all federal, state and local government web resources and services.